Content
SEND FEEDBACK

United States of America Flag

HAZELWOOD, MISSOURI


Home > North America > United States > Missouri
Elevation: 570 feet     Latitude: 38 45N     Longitude: 090 22W

WEATHER
 
SELECT A DAY
Number of Records: 214,092;   Date Range: 1/1/95 - 3/22/16
 
SHARE

PRINT THIS DATA

[ ← Previous Day ]
WEATHER ALMANAC - JULY 2, 2013
[ Next Day → ]
[ °C ]   °F
Weather ElementAverageHighLow
Temperature65.3 °F70 °F (1:54 am)63 °F (9:54 am)
Dewpoint57.8 °F62.1 °F (7:54 pm)53.1 °F (3:54 am)
Humidity77.5 %93 % (8:54 pm)59 % (3:54 am)
Barometer30.01 in30.04 in (12:54 pm)29.94 in (2:54 am)
Wind Speed5.1 mph11.5 mph (1:54 pm)
Wind Gust18.4 mph (1:54 pm)
Weather ElementAverage
Visibility8.8 mi
Wind DirectionSSW (189.6 °)

Weather ElementTotal
Precipitation0.47 in
Cooling Degree Days1.5 (Base 65)
Growing Degree Days16.5 (Base 50)
Averaged from 23 records on July 2, 2013
WEATHER CONDITIONS BREAKOUT
WIND DIRECTION BREAKOUT
WEATHER BY HOUR - JULY 2, 2013
[ °C ]   °F
Local TimeTemperatureDewpointHumidityBarometerVisibilityWind DirectionWind SpeedGust SpeedPrecipitationEventsConditions
1:54 AM70.0 °F55.9 °F61 %29.95 in10.0 miNE (40°)8.1 mphOvercast
2:54 AM68.0 °F57.0 °F68 %29.94 in10.0 miNNW (340°)4.6 mphOvercast
3:54 AM68.0 °F53.1 °F59 %29.94 in10.0 miNorth (360°)9.2 mphOvercast
4:54 AM68.0 °F54.0 °F61 %29.95 in10.0 miNorth (360°)6.9 mphOvercast
5:54 AM66.9 °F54.0 °F63 %29.96 in10.0 miNorth (360°)8.1 mphOvercast
6:54 AM66.0 °F54.0 °F65 %29.98 in10.0 miNorth (360°)5.8 mphOvercast
7:54 AM64.9 °F55.9 °F73 %29.99 in10.0 miNorth (360°)8.1 mph0.00 inRainLight Rain
9:54 AM63.0 °F57.0 °F81 %30.01 in6.0 miNorth (360°)8.1 mph0.02 inRainLight Rain
10:54 AM63.0 °F57.9 °F84 %30.02 in9.0 miNorth (360°)5.8 mph0.03 inRainLight Rain
11:54 AM64.0 °F59.0 °F84 %30.03 in9.0 miNorth (360°)4.6 mph0.01 inRainLight Rain
12:54 PM63.0 °F60.1 °F90 %30.04 in2.5 miVariable4.6 mph0.26 inRainHeavy Rain
1:26 PM64.4 °F57.2 °F77 %30.04 in5.0 miNorth (360°)10.4 mph0.04 inRainLight Rain
1:54 PM64.0 °F57.0 °F78 %30.03 in5.0 miNorth (360°)11.5 mph18.4 mph0.05 inRainLight Rain
2:54 PM64.0 °F57.0 °F78 %30.04 in5.0 miNNE (20°)6.9 mph0.02 inRainLight Rain
3:54 PM64.0 °F59.0 °F84 %30.04 in10.0 miEast (80°)4.6 mph0.04 inRainLight Rain
4:54 PM66.9 °F57.0 °F70 %30.03 in10.0 miNE (50°)5.8 mph0.00 inOvercast
5:54 PM68.0 °F57.9 °F70 %30.02 in10.0 miCalmOvercast
6:54 PM66.0 °F61.0 °F84 %30.02 in10.0 miCalmMostly Cloudy
7:54 PM64.9 °F62.1 °F90 %30.02 in10.0 miSW (230°)4.6 mphOvercast
8:54 PM63.0 °F61.0 °F93 %30.02 in10.0 miCalmOvercast
9:54 PM63.0 °F61.0 °F93 %30.04 in10.0 miCalmOvercast
10:54 PM64.0 °F60.1 °F87 %30.04 in10.0 miCalmOvercast
11:54 PM64.0 °F61.0 °F90 %30.04 in10.0 miCalmOvercast
Hourly data recorded from KSUS, located miles away from Hazelwood, Missouri




STORIES FROM OUR PARTNERS